VOIA152 RJKA-RJFU

Flight info

Callsign VOIA152
Flight time 0h 53m
Altitude 21000
Route TGE/N0338F200 JAT HKC AKE OLE
Aircraft C130/M-SDE2E3FGRY/H

Departure

Time 2026-04-26 01:05
Airport Amami Airport (RJKA)

Arrival

Time 2026-04-26 01:59
Airport Nagasaki Airport (RJFU)
Time Latitude Longitude Altitude Speed Heading
2026-04-26 00:48 28.43161 129.70927 31 ft 0 kts 295°
2026-04-26 00:56 28.43160 129.70928 31 ft 1 kts 295°
2026-04-26 00:56 28.43149 129.70954 31 ft 3 kts 295°
2026-04-26 00:56 28.43138 129.70982 31 ft 2 kts 295°
2026-04-26 00:56 28.43126 129.71009 31 ft 2 kts 297°
2026-04-26 00:57 28.43112 129.71036 31 ft 2 kts 307°
2026-04-26 00:57 28.43093 129.71053 31 ft 2 kts 351°
2026-04-26 00:57 28.43083 129.71052 31 ft 7 kts 25°
2026-04-26 01:01 28.43159 129.71091 30 ft 21 kts 23°
2026-04-26 01:01 28.43276 129.71157 30 ft 17 kts 26°
2026-04-26 01:02 28.43372 129.71210 29 ft 14 kts 25°
2026-04-26 01:02 28.43449 129.71251 28 ft 11 kts 25°
2026-04-26 01:02 28.43507 129.71282 28 ft 8 kts 27°
2026-04-26 01:02 28.43566 129.71317 27 ft 11 kts 27°
2026-04-26 01:03 28.43636 129.71357 27 ft 12 kts 27°
2026-04-26 01:03 28.43770 129.71428 29 ft 30 kts 26°
2026-04-26 01:03 28.43922 129.71533 24 ft 21 kts 69°
2026-04-26 01:03 28.43882 129.71664 24 ft 12 kts 136°
2026-04-26 01:04 28.43841 129.71672 24 ft 3 kts 188°
2026-04-26 01:04 28.43826 129.71667 23 ft 0 kts 205°
2026-04-26 01:05 28.43660 129.71576 28 ft 62 kts 206°
2026-04-26 01:05 28.43069 129.71254 102 ft 118 kts 208°
2026-04-26 01:05 28.42239 129.70824 544 ft 141 kts 205°
2026-04-26 01:05 28.41328 129.70379 1213 ft 146 kts 204°
2026-04-26 01:06 28.40371 129.69993 1949 ft 157 kts 185°
2026-04-26 01:06 28.39573 129.70745 2811 ft 156 kts 103°
2026-04-26 01:06 28.39403 129.71921 3534 ft 166 kts 101°
2026-04-26 01:06 28.39154 129.73392 3842 ft 198 kts 102°
2026-04-26 01:07 28.38989 129.74789 5181 ft 163 kts 88°
2026-04-26 01:07 28.39393 129.76087 5505 ft 201 kts 52°
2026-04-26 01:07 28.40489 129.77131 6146 ft 197 kts 25°
2026-04-26 01:07 28.41569 129.77798 7514 ft 168 kts 23°
2026-04-26 01:08 28.42742 129.78494 7409 ft 226 kts 22°
2026-04-26 01:08 28.44291 129.79307 7804 ft 241 kts 20°
2026-04-26 01:08 28.45629 129.79968 9723 ft 182 kts 17°
2026-04-26 01:08 28.46810 129.80496 10450 ft 198 kts 14°
2026-04-26 01:09 28.48348 129.81017 10144 ft 258 kts 10°
2026-04-26 01:09 28.50034 129.81457 11364 ft 222 kts
2026-04-26 01:09 28.51383 129.81763 13062 ft 186 kts
2026-04-26 01:09 28.52612 129.81735 13930 ft 169 kts 336°
2026-04-26 01:10 28.53728 129.81422 14642 ft 163 kts 340°
2026-04-26 01:10 28.54838 129.81209 15228 ft 163 kts 342°
2026-04-26 01:10 28.55979 129.81030 15640 ft 174 kts 350°
2026-04-26 01:10 28.57229 129.81067 16131 ft 180 kts 356°
2026-04-26 01:11 28.58476 129.81254 16606 ft 185 kts
2026-04-26 01:11 28.59699 129.81111 16990 ft 171 kts 316°
2026-04-26 01:11 28.60630 129.80339 17493 ft 166 kts 316°
2026-04-26 01:11 28.61610 129.79621 17955 ft 168 kts 316°
2026-04-26 01:12 28.62655 129.78978 18349 ft 180 kts 338°
2026-04-26 01:12 28.63922 129.78753 18696 ft 183 kts 333°
2026-04-26 01:12 28.64909 129.77988 18993 ft 169 kts 303°
2026-04-26 01:12 28.65871 129.77141 19333 ft 179 kts 315°
2026-04-26 01:13 28.66963 129.76405 19680 ft 187 kts 325°
2026-04-26 01:13 28.68230 129.75913 20028 ft 197 kts 337°
2026-04-26 01:13 28.69618 129.75690 20390 ft 205 kts 349°
2026-04-26 01:13 28.71050 129.76054 20653 ft 222 kts 31°
2026-04-26 01:14 28.72097 129.77324 20949 ft 221 kts 71°
2026-04-26 01:14 28.72602 129.78948 21282 ft 220 kts 68°
2026-04-26 01:14 28.73614 129.80329 21397 ft 237 kts 45°
2026-04-26 01:14 28.74802 129.81733 21476 ft 255 kts 48°
2026-04-26 01:15 28.76059 129.83265 21552 ft 274 kts 48°
2026-04-26 01:15 28.77406 129.84907 21613 ft 292 kts 48°
2026-04-26 01:15 28.78806 129.86668 21654 ft 308 kts 56°
2026-04-26 01:15 28.79717 129.88900 21672 ft 316 kts 79°
2026-04-26 01:16 28.80260 129.91376 21716 ft 328 kts 82°
2026-04-26 01:16 28.80754 129.93963 21739 ft 339 kts 83°
2026-04-26 01:16 28.81229 129.96604 21762 ft 349 kts 83°
2026-04-26 01:16 28.81711 129.99358 21776 ft 357 kts 83°
2026-04-26 01:17 28.82200 130.02162 21785 ft 364 kts 82°
2026-04-26 01:17 28.83105 130.04896 21774 ft 376 kts 60°
2026-04-26 01:17 28.84817 130.07196 21779 ft 383 kts 41°
2026-04-26 01:17 28.86954 130.09025 21787 ft 386 kts 31°
2026-04-26 01:18 28.89300 130.10522 21797 ft 388 kts 24°
2026-04-26 01:18 28.91759 130.11797 21800 ft 389 kts 20°
2026-04-26 01:18 28.94289 130.12936 21803 ft 390 kts 18°
2026-04-26 01:18 28.96848 130.13986 21805 ft 392 kts 16°
2026-04-26 01:19 28.99400 130.14977 21806 ft 393 kts 15°
2026-04-26 01:19 29.02031 130.15967 21809 ft 393 kts 14°
2026-04-26 01:19 29.04605 130.16920 21811 ft 394 kts 14°
2026-04-26 01:19 29.07221 130.17879 21810 ft 394 kts 14°
2026-04-26 01:20 29.09835 130.18835 21809 ft 395 kts 14°
2026-04-26 01:20 29.12452 130.19792 21809 ft 395 kts 14°
2026-04-26 01:20 29.15068 130.20749 21810 ft 395 kts 14°
2026-04-26 01:20 29.17685 130.21707 21811 ft 395 kts 14°
2026-04-26 01:21 29.20305 130.22668 21808 ft 394 kts 14°
2026-04-26 01:21 29.22920 130.23626 21812 ft 394 kts 13°
2026-04-26 01:21 29.25532 130.24584 21808 ft 394 kts 13°
2026-04-26 01:21 29.28140 130.25542 21811 ft 393 kts 13°
2026-04-26 01:22 29.30711 130.26486 21813 ft 393 kts 13°
2026-04-26 01:22 29.33315 130.27443 21806 ft 393 kts 13°
2026-04-26 01:22 29.35916 130.28399 21807 ft 393 kts 13°
2026-04-26 01:22 29.38515 130.29354 21808 ft 393 kts 13°
2026-04-26 01:23 29.41120 130.30313 21808 ft 393 kts 12°
2026-04-26 01:23 29.43731 130.31275 21811 ft 393 kts 12°
2026-04-26 01:23 29.46336 130.32234 21812 ft 394 kts 12°
2026-04-26 01:23 29.48955 130.33197 21809 ft 395 kts 12°
2026-04-26 01:24 29.51578 130.34164 21812 ft 396 kts 12°
2026-04-26 01:24 29.54206 130.35132 21815 ft 397 kts 12°
2026-04-26 01:24 29.56844 130.36105 21818 ft 398 kts 12°
2026-04-26 01:24 29.59488 130.37082 21821 ft 400 kts 12°
2026-04-26 01:25 29.62141 130.38061 21822 ft 401 kts 12°
2026-04-26 01:25 29.64804 130.39046 21819 ft 403 kts 12°
2026-04-26 01:25 29.67478 130.40034 21824 ft 404 kts 12°
2026-04-26 01:25 29.70157 130.41025 21825 ft 406 kts 12°
2026-04-26 01:26 29.72850 130.42022 21826 ft 407 kts 12°
2026-04-26 01:26 29.75553 130.43022 21829 ft 409 kts 12°
2026-04-26 01:26 29.78271 130.44030 21827 ft 410 kts 12°
2026-04-26 01:26 29.80959 130.45026 21829 ft 412 kts 12°
2026-04-26 01:27 29.83695 130.46041 21830 ft 414 kts 12°
2026-04-26 01:27 29.86440 130.47060 21832 ft 415 kts 12°
2026-04-26 01:27 29.89197 130.48084 21832 ft 417 kts 12°
2026-04-26 01:27 29.91973 130.49116 21832 ft 419 kts 12°
2026-04-26 01:28 29.94759 130.50151 21834 ft 420 kts 12°
2026-04-26 01:28 29.97533 130.51184 21828 ft 422 kts 12°
2026-04-26 01:28 30.00339 130.52229 21835 ft 423 kts 12°
2026-04-26 01:28 30.03117 130.53263 21838 ft 425 kts 12°
2026-04-26 01:29 30.05933 130.54313 21840 ft 426 kts 12°
2026-04-26 01:29 30.08757 130.55366 21834 ft 427 kts 12°
2026-04-26 01:29 30.11587 130.56422 21838 ft 428 kts 12°
2026-04-26 01:29 30.14424 130.57482 21837 ft 430 kts 12°
2026-04-26 01:30 30.17277 130.58547 21842 ft 431 kts 12°
2026-04-26 01:30 30.20135 130.59616 21846 ft 432 kts 12°
2026-04-26 01:30 30.23007 130.60691 21852 ft 434 kts 12°
2026-04-26 01:30 30.25885 130.61767 21862 ft 435 kts 12°
2026-04-26 01:31 30.28768 130.62847 21870 ft 437 kts 12°
2026-04-26 01:31 30.31664 130.63930 21872 ft 439 kts 12°
2026-04-26 01:31 30.34578 130.65023 21881 ft 441 kts 12°
2026-04-26 01:31 30.37505 130.66120 21884 ft 442 kts 12°
2026-04-26 01:32 30.40430 130.67222 21885 ft 443 kts 12°
2026-04-26 01:32 30.43370 130.68326 21894 ft 444 kts 12°
2026-04-26 01:32 30.46275 130.69418 21893 ft 445 kts 11°
2026-04-26 01:32 30.49237 130.70482 21892 ft 444 kts
2026-04-26 01:33 30.52251 130.70770 21875 ft 427 kts 346°
2026-04-26 01:33 30.55071 130.70012 21866 ft 407 kts 327°
2026-04-26 01:33 30.57446 130.68397 21881 ft 391 kts 315°
2026-04-26 01:33 30.59900 130.66886 21876 ft 408 kts 328°
2026-04-26 01:34 30.62642 130.65864 21891 ft 419 kts 336°
2026-04-26 01:34 30.65522 130.65178 21904 ft 426 kts 341°
2026-04-26 01:34 30.68483 130.64712 21896 ft 430 kts 345°
2026-04-26 01:34 30.70459 130.64480 21910 ft 432 kts 346°
2026-04-26 01:35 30.73461 130.64204 21913 ft 434 kts 347°
2026-04-26 01:35 30.77473 130.63911 21917 ft 436 kts 348°
2026-04-26 01:35 30.79518 130.63778 21919 ft 436 kts 348°
2026-04-26 01:35 30.82552 130.63589 21923 ft 437 kts 348°
2026-04-26 01:36 30.86578 130.63346 21928 ft 437 kts 348°
2026-04-26 01:36 30.88631 130.63222 21929 ft 437 kts 348°
2026-04-26 01:36 30.91675 130.63038 21929 ft 437 kts 348°
2026-04-26 01:37 30.97753 130.62669 21930 ft 438 kts 348°
2026-04-26 01:37 31.00791 130.62484 21933 ft 438 kts 348°
2026-04-26 01:37 31.03800 130.62299 21936 ft 438 kts 349°
2026-04-26 01:37 31.06847 130.62113 21938 ft 438 kts 349°
2026-04-26 01:38 31.09890 130.61927 21943 ft 438 kts 349°
2026-04-26 01:38 31.12930 130.61741 21949 ft 438 kts 349°
2026-04-26 01:38 31.15970 130.61555 21951 ft 438 kts 349°
2026-04-26 01:38 31.19016 130.61367 21956 ft 438 kts 349°
2026-04-26 01:39 31.22062 130.61181 21960 ft 438 kts 349°
2026-04-26 01:39 31.25106 130.60992 21963 ft 439 kts 349°
2026-04-26 01:39 31.28152 130.60805 21966 ft 439 kts 349°
2026-04-26 01:39 31.31208 130.60620 21966 ft 438 kts 349°
2026-04-26 01:40 31.34254 130.60434 21965 ft 438 kts 349°
2026-04-26 01:40 31.37299 130.60246 21970 ft 438 kts 349°
2026-04-26 01:40 31.40303 130.60062 21972 ft 437 kts 349°
2026-04-26 01:40 31.43381 130.59871 21974 ft 437 kts 349°
2026-04-26 01:41 31.46424 130.59684 21977 ft 437 kts 349°
2026-04-26 01:41 31.49454 130.59497 21978 ft 436 kts 349°
2026-04-26 01:41 31.52485 130.59310 21985 ft 436 kts 349°
2026-04-26 01:41 31.55470 130.59127 21951 ft 436 kts 349°
2026-04-26 01:42 31.58518 130.58935 21808 ft 440 kts 349°
2026-04-26 01:42 31.61591 130.58742 21574 ft 444 kts 349°
2026-04-26 01:42 31.64689 130.58547 21344 ft 448 kts 350°
2026-04-26 01:42 31.67828 130.58346 21015 ft 453 kts 349°
2026-04-26 01:43 31.70889 130.57690 20693 ft 442 kts 333°
2026-04-26 01:43 31.73578 130.56048 20360 ft 431 kts 320°
2026-04-26 01:43 31.76150 130.54201 20028 ft 436 kts 323°
2026-04-26 01:43 31.78848 130.52497 19344 ft 445 kts 326°
2026-04-26 01:44 31.81638 130.50868 18460 ft 443 kts 329°
2026-04-26 01:44 31.84407 130.49344 17876 ft 438 kts 330°
2026-04-26 01:44 31.87177 130.47861 17343 ft 435 kts 331°
2026-04-26 01:44 31.89930 130.46413 16799 ft 432 kts 331°
2026-04-26 01:45 31.92658 130.44984 16268 ft 429 kts 332°
2026-04-26 01:45 31.95346 130.43585 15762 ft 426 kts 332°
2026-04-26 01:45 31.98047 130.42176 15291 ft 424 kts 332°
2026-04-26 01:45 32.00736 130.40772 14823 ft 421 kts 333°
2026-04-26 01:46 32.03413 130.39376 14351 ft 418 kts 333°
2026-04-26 01:46 32.06061 130.37999 13869 ft 415 kts 333°
2026-04-26 01:46 32.08700 130.36620 13356 ft 413 kts 333°
2026-04-26 01:46 32.11307 130.35260 13108 ft 406 kts 333°
2026-04-26 01:47 32.13885 130.33914 12987 ft 403 kts 333°
2026-04-26 01:47 32.16449 130.32572 12862 ft 402 kts 334°
2026-04-26 01:47 32.19003 130.31236 12737 ft 401 kts 333°
2026-04-26 01:47 32.21555 130.29898 12611 ft 400 kts 334°
2026-04-26 01:48 32.24104 130.28563 12487 ft 399 kts 334°
2026-04-26 01:48 32.26638 130.27232 12359 ft 398 kts 334°
2026-04-26 01:48 32.29168 130.25908 12231 ft 397 kts 334°
2026-04-26 01:48 32.31658 130.24603 12103 ft 396 kts 334°
2026-04-26 01:49 32.34171 130.23278 11978 ft 395 kts 334°
2026-04-26 01:49 32.36684 130.21960 11854 ft 394 kts 334°
2026-04-26 01:49 32.39197 130.20676 11691 ft 396 kts 335°
2026-04-26 01:49 32.41774 130.19415 11071 ft 399 kts 336°
2026-04-26 01:50 32.44284 130.18199 10464 ft 377 kts 336°
2026-04-26 01:50 32.46631 130.17062 9872 ft 351 kts 336°
2026-04-26 01:50 32.48844 130.15986 9245 ft 340 kts 336°
2026-04-26 01:50 32.51087 130.15168 8597 ft 337 kts 353°
2026-04-26 01:51 32.53419 130.15074 8004 ft 333 kts
2026-04-26 01:51 32.55715 130.15089 7434 ft 329 kts
2026-04-26 01:51 32.57993 130.15131 6929 ft 325 kts
2026-04-26 01:51 32.60234 130.15179 6476 ft 318 kts
2026-04-26 01:52 32.62372 130.15221 6478 ft 296 kts
2026-04-26 01:52 32.64358 130.15255 6456 ft 277 kts
2026-04-26 01:52 32.66243 130.15288 6448 ft 264 kts
2026-04-26 01:52 32.68027 130.15319 6350 ft 251 kts
2026-04-26 01:53 32.69754 130.15343 6148 ft 246 kts
2026-04-26 01:53 32.71432 130.15360 5927 ft 242 kts
2026-04-26 01:53 32.73083 130.15053 5670 ft 243 kts 336°
2026-04-26 01:53 32.74558 130.14107 5512 ft 239 kts 329°
2026-04-26 01:54 32.75980 130.13101 5323 ft 237 kts 328°
2026-04-26 01:54 32.77410 130.12051 4720 ft 250 kts 328°
2026-04-26 01:54 32.78813 130.10719 3880 ft 268 kts 310°
2026-04-26 01:54 32.80013 130.08988 3166 ft 274 kts 308°
2026-04-26 01:55 32.81160 130.07227 2404 ft 265 kts 308°
2026-04-26 01:55 32.82256 130.05503 1747 ft 254 kts 309°
2026-04-26 01:55 32.83256 130.03989 1755 ft 216 kts 309°
2026-04-26 01:55 32.84107 130.02677 1727 ft 186 kts 310°
2026-04-26 01:56 32.84796 130.01567 1733 ft 147 kts 309°
2026-04-26 01:56 32.85363 130.00641 1552 ft 133 kts 310°
2026-04-26 01:56 32.85896 129.99786 1327 ft 120 kts 313°
2026-04-26 01:56 32.86350 129.98961 1118 ft 120 kts 301°
2026-04-26 01:57 32.86758 129.98111 1028 ft 119 kts 301°
2026-04-26 01:57 32.87130 129.97220 937 ft 119 kts 300°
2026-04-26 01:57 32.87482 129.96341 923 ft 118 kts 297°
2026-04-26 01:57 32.87892 129.95465 820 ft 126 kts 303°
2026-04-26 01:58 32.88479 129.94731 850 ft 121 kts 317°
2026-04-26 01:58 32.89088 129.94012 716 ft 130 kts 318°
2026-04-26 01:58 32.89808 129.93303 462 ft 138 kts 319°
2026-04-26 01:58 32.90519 129.92576 146 ft 125 kts 318°
2026-04-26 01:59 32.91096 129.91976 28 ft 94 kts 318°
2026-04-26 01:59 32.91421 129.91634 27 ft 29 kts 318°
2026-04-26 01:59 32.91507 129.91549 29 ft 8 kts 341°
2026-04-26 01:59 32.91551 129.91555 25 ft 7 kts 31°
2026-04-26 02:00 32.91590 129.91598 29 ft 8 kts 49°
2026-04-26 02:00 32.91618 129.91648 27 ft 8 kts 70°
2026-04-26 02:00 32.91611 129.91711 29 ft 8 kts 137°
2026-04-26 02:00 32.91563 129.91764 27 ft 11 kts 137°
2026-04-26 02:01 32.91541 129.91827 25 ft 8 kts 47°
2026-04-26 02:01 32.91566 129.91861 27 ft 4 kts 48°
2026-04-26 02:01 32.91596 129.91900 28 ft 13 kts 48°
2026-04-26 02:01 32.91618 129.91930 26 ft 0 kts 48°